Regional Weather Roundup
Issued by NWS

Home | Current Version | Previous Version | Graphics & Text | Print | Product List | Glossary On
Versions: 1 2 3 4 5 6 7 8 9 10 11 12 13 14 15 16 17 18 19 20 21 22 23 24 25 26 27 28 29 30 31 32 33 34 35 36 37 38 39 40 41 42 43 44 45 46 47 48 49 50
000
ASUS43 KLOT 230108
RWRIL

ILLINOIS REGIONAL WEATHER ROUNDUP
NATIONAL WEATHER SERVICE CHICAGO/ROMEOVILLE IL
700 PM CST SUN JAN 22 2017

NOTE: "FAIR" INDICATES FEW OR NO CLOUDS BELOW 12,000 FEET WITH NO
SIGNIFICANT WEATHER AND/OR OBSTRUCTIONS TO VISIBILITY.

* THESE STATIONS ARE NOT UNDER NWS QUALITY CONTROL. THEY ALSO MAY NOT
  REPORT WEATHER SUCH AS PRECIPITATION OR FOG.

ILZ001-002-007-009-015-016-024-230200-
NORTHWEST ILLINOIS

CITY           SKY/WX    TMP DP  RH WIND       PRES   REMARKS
MOLINE         CLOUDY    38  34  85 NW7       29.69R WCI  33
STERLING*      CLOUDY    38  35  89 N8        29.69R WCI  32
SAVANNA*       PTCLDY    36  34  94 NW5       29.69S WCI  32
$$

ILZ003-004-008-010-011-017-018-230200-
NORTH CENTRAL ILLINOIS

CITY           SKY/WX    TMP DP  RH WIND       PRES   REMARKS
ROCKFORD       CLOUDY    36  33  89 NE7       29.69R FOG     WCI  30
FREEPORT*      CLOUDY    36  34  92 N5        29.70S WCI  32
ROCHELLE*      CLOUDY    36  35  95 N8        29.67S FOG     WCI  30
DE KALB*       CLOUDY    37  36  97 N16       29.66S FOG     WCI  27
PERU*          CLOUDY    39  36  87 N8        29.66R WCI  34
$$

ILZ005-006-012>014-019>023-230200-
NORTHEAST ILLINOIS

CITY           SKY/WX    TMP DP  RH WIND       PRES   REMARKS
CHICAGO-OHARE  CLOUDY    41  38  89 N7        29.64F
CHICAGO-MIDWAY CLOUDY    43  36  76 N16G23    29.63F
AURORA         CLOUDY    39  36  89 N9        29.65S WCI  33
LANSING*       CLOUDY    40  40 100 N9        29.63F FOG
JOLIET*        CLOUDY    42  40  93 N7        29.63F FOG
WAUKEGAN       CLOUDY    40  37  89 N3        29.65F FOG
DUPAGE AIRPORT CLOUDY    39  36  89 N12       29.64F WCI  32
KANKAKEE*      CLOUDY    41  38  91 N10       29.63R
WHEELING       CLOUDY    41  37  86 N6        29.66S
MORRIS*        CLOUDY    39  36  88 N6        29.62F
ROMEOVILLE*    CLOUDY    41  40  97 N9        29.62F
NORTHERLY ISL    N/A     38  37  97 MISG        N/A
$$

LMZ740>746-230200-
SOUTHERN LAKE MICHIGAN

STATION/POSITION SKY/WX   TEMP    WIND        PRES    VSBY  WAVE
                          AIR SEA DIR/SP/G                  HT/PER
                          (F)     (DEG/KT/KT) (MB)    (MI)  (FT/S)
HARRISON CRIB              38     350/  9/  9   N/A
BURNHAM HARBOR             38     340/  9/  9   N/A
CALUMET HARBOR             37     340/  8/ 11 1003.4F
BURNS HARBOR               37      10/ 11/ 13 1003.7F
MICHIGAN CITY              38     340/ 14/ 15   N/A
$$

ILZ025>027-034>036-040-047-049-050-058-095>099-230200-
WEST-CENTRAL ILLINOIS

CITY           SKY/WX    TMP DP  RH WIND       PRES   REMARKS
QUINCY         CLOUDY    37  34  89 N14       29.69S WCI  28
GALESBURG*     CLOUDY    37  37 100 NW8       29.68S FOG     WCI  30
MACOMB*        CLOUDY    37  37  98 NW14      29.70F FOG     WCI  28
JACKSONVILLE*  CLEAR     39  36  89 NW9       29.66R WCI  33
PITTSFIELD*    CLOUDY    39  37  90 N9        29.68R WCI  33
$$

ILZ028>032-037-038-041>044-048-051>054-059>061-230200-
CENTRAL ILLINOIS

CITY           SKY/WX    TMP DP  RH WIND       PRES   REMARKS
PONTIAC        CLOUDY    40  39  97 N13       29.64R
BLOOMINGTON    CLEAR     39  36  89 N17       29.62R WCI  30
DECATUR        CLEAR     42  40  92 N14       29.61R
PEORIA         CLOUDY    40  36  86 VRB6      29.65S
LACON*         CLOUDY    39  37  92 N7        29.65F WCI  34
LINCOLN*       CLEAR     41  37  86 N9        29.64R
SPRINGFIELD    CLEAR     42  36  79 N12       29.64R
TAYLORVILLE    PTCLDY    42  39  90 N16G22    29.62R
$$

ILZ033-039-045-046-055>057-062-063-230200-
EAST-CENTRAL ILLINOIS

CITY           SKY/WX    TMP DP  RH WIND       PRES   REMARKS
CHAMPAIGN      CLOUDY    45  41  86 N23G32    29.58R FOG
RANTOUL*       CLOUDY    44  42  92 N18G24    29.60R FOG
MATTOON        CLOUDY    45  43  93 N20G29    29.57R FOG
PARIS*         CLOUDY    47  47  99 N16G22    29.57R FOG
$$

ILZ079-100>102-230200-
SOUTHWEST ILLINOIS

CITY           SKY/WX    TMP DP  RH WIND       PRES   REMARKS
ALTON          CLEAR     45  37  76 N16       29.63R
BELLEVILLE     CLOUDY    49  45  85 N16       29.59R
CAHOKIA*       CLOUDY    48  40  73 NW14      29.63R
SPARTA*        CLOUDY    50  46  84 N15G22    29.59R
$$

ILZ064>066-069>071-074>076-080>082-084>086-088>090-092>094-230200-
SOUTH-CENTRAL ILLINOIS

CITY           SKY/WX    TMP DP  RH WIND       PRES   REMARKS
CARBONDALE     CLOUDY    52  50  93 N16       29.52R
CAIRO*         CLOUDY    55  51  86 N24       29.45R
EFFINGHAM*     CLOUDY    47  47 100 N13G22    29.59R FOG
MARION         DRIZZLE   55  54  94 NW10G17   29.51R
MT. VERNON     CLOUDY    50  48  93 N10G20    29.54R
CENTRALIA*     CLOUDY    51  49  92 N14       29.56R
SALEM*         CLOUDY    50  47  88 N15G25    29.56R FOG
METROPOLIS*    DRIZZLE   58  52  82 N9        29.44R
$$

ILZ067-068-072-073-078-083-087-091-230200-
SOUTHEAST ILLINOIS

CITY           SKY/WX    TMP DP  RH WIND       PRES   REMARKS
LAWRENCEVILLE  CLOUDY    57  52  83 N16       29.50R
FLORA*         CLOUDY    50  48  93 N16       29.54R FOG
FAIRFIELD*     CLOUDY    52  49  92 N12       29.50R
HARRISBURG*    CLOUDY    58  52  80 N10G16    29.48R
ROBINSON*      CLOUDY    52  49  90 N18       29.52R
CARMI*         CLOUDY    57  51  80 N14       29.47R
$$

ABBREVIATIONS USED IN REMARKS
   TC - TEMPERATURE IN CELSIUS
  WCI - WIND CHILL INDEX
   HX - HEAT INDEX
  VSB - VISIBILITY
$$




USA.gov is the U.S. government's official web portal to all federal, state and local government web resources and services.